Location: Unspecified
(0.0000°N, 0.0000°E)
Time: 17:43:12
(UTC+00:00)

ITAMSAT 1 - Visible Passes

Search period start: 10 December 2018 00:00
Search period end: 20 December 2018 00:00
Orbit: 784 x 797 km, 98.9° (Epoch: 09 December)

Date Brightness Start Highest point End Pass type
(mag) Time Alt. Az. Time Alt. Az. Time Alt. Az.
10 Dec 10.6 03:07:10 10° E 03:09:10 12° ESE 03:11:10 10° SE visible
10 Dec 8.0 04:43:32 10° N 04:48:19 39° WNW 04:53:07 10° SW visible
11 Dec 7.6 04:13:50 10° NNE 04:18:59 89° ESE 04:24:10 10° SSW visible
12 Dec 9.0 03:44:54 10° NE 03:49:40 38° ESE 03:54:26 10° S visible
12 Dec 9.3 05:26:42 10° NW 05:28:50 13° WNW 05:30:58 10° WSW visible
13 Dec 10.3 03:17:06 10° ENE 03:20:21 17° ESE 03:23:36 10° SE visible
13 Dec 8.4 04:55:07 10° NNW 04:59:31 29° WNW 05:03:58 10° SW visible
14 Dec 7.5 04:25:05 10° N 04:30:11 68° WNW 04:35:20 10° SSW visible
15 Dec 8.4 03:55:52 10° NNE 04:00:51 52° ESE 04:05:53 10° S visible
16 Dec 9.8 03:27:33 10° NE 03:31:33 23° ESE 03:35:33 10° SSE visible
16 Dec 8.8 05:06:51 10° NNW 05:10:43 22° WNW 05:14:36 10° SW visible
17 Dec 7.8 04:36:26 10° N 04:41:23 49° WNW 04:46:23 10° SSW visible
18 Dec 7.8 04:06:56 10° NNE 04:12:04 72° ESE 04:17:13 10° S visible
19 Dec 9.4 03:38:15 10° NE 03:42:45 31° ESE 03:47:16 10° SSE visible
19 Dec 9.1 05:18:51 10° NW 05:21:55 16° WNW 05:24:59 10° WSW visible
